Tracking 19176 objects as of 25-May-2018
HD Live streaming from Space Station
objects crossing your sky now

COSMOS 2247

Track COSMOS 2247 now!
10-day predictions
COSMOS 2247 is classified as:


NORAD ID: 22648
Int'l Code: 1993-030C
Perigee: 1,409.8 km
Apogee: 1,424.1 km
Inclination: 82.6 °
Period: 114.0 minutes
Semi major axis: 7787 km
RCS: 1.2094 m2 (large)
Launch date: May 11, 1993
Source: Commonwealth of Independent States (former USSR) (CIS)
Launch site: PLESETSK MISSILE AND SPACE COMPLEX (PKMTR)
aabbcc
Your satellite tracking list
Your tracking list is empty




NASA's NSSDC Master Catalog

Two Line Element Set (TLE):
1 22648U 93030C   18144.76152332 +.00000008 +00000-0 -12291-4 0  9992
2 22648 082.5827 038.2651 0009147 134.5193 287.3374 12.63189379154191
Source of the keplerian elements: AFSPC